Volver al catálogo

SL-12 DEB

LostHEO
NORAD 40121·DEBRIS·🇷🇺 Russia

Lanzado Sep 25, 2008 desde Baikonur Cosmodrome

Loading…

Próximos Pases (próximas 24 horas)

TLE

ObsoletoSource: Space-Track

Época: May 13, 2018, 04:46 UTC

1 40121U 08046S   18133.19927598  .00065491  00000-0  60894-2 0  9996
2 40121  64.7855 309.8514 5544437  24.9747 353.9354  4.77883263 60196

Sigue SL-12 DEB en tiempo real con AllMySat

Download on the App Store